EN

Hourly Weather Alwar

Today, 16 January, Saturday

Time Temperature Precipitation Wind Pressure Humidity
00:00 +11°C° 0 mm 0 mps 729 mmHg 48%
01:00 +10°C° 0 mm 0 mps 729 mmHg 48%
02:00 +10°C° 0 mm 0 mps 729 mmHg 48%
03:00 +10°C° 0 mm 0 mps 728 mmHg 49%
04:00 +10°C° 0 mm 0 mps 728 mmHg 49%
05:00 +9°C° 0 mm 0 mps 728 mmHg 49%
06:00 +10°C° 0 mm 0 mps 729 mmHg 49%
07:00 +11°C° 0 mm 0 mps 729 mmHg 48%
08:00 +12°C° 0 mm 0 mps 730 mmHg 47%
09:00 +16°C° 0 mm 1 mps 730 mmHg 40%
10:00 +19°C° 0 mm 1 mps 730 mmHg 33%
11:00 +22°C° 0 mm 1 mps 730 mmHg 27%
12:00 +23°C° 0 mm 2 mps 730 mmHg 24%
13:00 +24°C° 0 mm 2 mps 729 mmHg 22%
14:00 +25°C° 0 mm 2 mps 728 mmHg 19%
15:00 +23°C° 0 mm 2 mps 728 mmHg 24%
16:00 +20°C° 0 mm 2 mps 727 mmHg 29%
17:00 +18°C° 0 mm 2 mps 727 mmHg 35%
18:00 +16°C° 0 mm 1 mps 727 mmHg 37%
19:00 +15°C° 0 mm 1 mps 728 mmHg 39%
20:00 +12°C° 0 mm 0 mps 728 mmHg 41%
21:00 +12°C° 0 mm 0 mps 728 mmHg 41%
22:00 +12°C° 0 mm 0 mps 728 mmHg 40%
23:00 +11°C° 0 mm 0 mps 728 mmHg 40%

Tomorrow, 17 January, Sunday

Time Temperature Precipitation Wind Pressure Humidity
00:00 +11°C° 0 mm 0 mps 728 mmHg 40%
01:00 +11°C° 0 mm 0 mps 727 mmHg 39%
02:00 +10°C° 0 mm 0 mps 727 mmHg 39%
03:00 +10°C° 0 mm 0 mps 727 mmHg 39%
04:00 +10°C° 0 mm 0 mps 727 mmHg 40%
05:00 +9°C° 0 mm 0 mps 727 mmHg 40%
06:00 +10°C° 0 mm 0 mps 728 mmHg 41%
07:00 +12°C° 0 mm 1 mps 729 mmHg 42%
08:00 +13°C° 0 mm 1 mps 730 mmHg 42%
09:00 +15°C° 0 mm 1 mps 730 mmHg 38%
10:00 +17°C° 0 mm 2 mps 730 mmHg 34%
11:00 +20°C° 0 mm 3 mps 730 mmHg 30%
12:00 +21°C° 0 mm 3 mps 730 mmHg 29%
13:00 +22°C° 0 mm 3 mps 729 mmHg 28%
14:00 +24°C° 0 mm 3 mps 728 mmHg 27%
15:00 +22°C° 0 mm 3 mps 728 mmHg 33%
16:00 +20°C° 0 mm 3 mps 728 mmHg 38%
17:00 +19°C° 0 mm 3 mps 728 mmHg 43%
18:00 +17°C° 0 mm 2 mps 728 mmHg 46%
19:00 +16°C° 0 mm 2 mps 729 mmHg 50%
20:00 +14°C° 0 mm 1 mps 729 mmHg 53%
21:00 +14°C° 0 mm 1 mps 729 mmHg 54%
22:00 +13°C° 0 mm 2 mps 729 mmHg 54%
23:00 +13°C° 0 mm 2 mps 729 mmHg 55%

Day after tomorrow, 18 January, Monday

Time Temperature Precipitation Wind Pressure Humidity
00:00 +13°C° 0 mm 1 mps 729 mmHg 56%
01:00 +12°C° 0 mm 1 mps 729 mmHg 57%
02:00 +12°C° 0 mm 1 mps 729 mmHg 58%
03:00 +11°C° 0 mm 1 mps 729 mmHg 58%
04:00 +11°C° 0 mm 1 mps 729 mmHg 59%
05:00 +11°C° 0 mm 1 mps 729 mmHg 60%
06:00 +11°C° 0 mm 1 mps 729 mmHg 58%
07:00 +12°C° 0 mm 1 mps 730 mmHg 56%
08:00 +13°C° 0 mm 1 mps 731 mmHg 54%
09:00 +15°C° 0 mm 2 mps 731 mmHg 49%
10:00 +18°C° 0 mm 3 mps 731 mmHg 43%
11:00 +20°C° 0 mm 3 mps 731 mmHg 37%
12:00 +21°C° 0 mm 3 mps 730 mmHg 36%
13:00 +24°C° 0 mm 3 mps 730 mmHg 34%
14:00 +25°C° 0 mm 3 mps 729 mmHg 33%
15:00 +22°C° 0 mm 3 mps 729 mmHg 38%
16:00 +21°C° 0 mm 2 mps 729 mmHg 43%
17:00 +20°C° 0 mm 2 mps 728 mmHg 48%
18:00 +18°C° 0 mm 2 mps 729 mmHg 51%
19:00 +18°C° 0 mm 1 mps 729 mmHg 55%
20:00 +16°C° 0 mm 1 mps 729 mmHg 58%
21:00 +15°C° 0 mm 1 mps 729 mmHg 60%
22:00 +14°C° 0 mm 0 mps 729 mmHg 61%
23:00 +13°C° 0 mm 0 mps 729 mmHg 62%

19 January, Tuesday

Time Temperature Precipitation Wind Pressure Humidity
00:00 +13°C° 0 mm 0 mps 729 mmHg 63%
01:00 +13°C° 0 mm 0 mps 728 mmHg 64%
02:00 +14°C° 0 mm 1 mps 728 mmHg 65%
03:00 +12°C° 0 mm 0 mps 728 mmHg 66%
04:00 +12°C° 0 mm 0 mps 728 mmHg 67%
05:00 +11°C° 0 mm 0 mps 728 mmHg 69%
06:00 +13°C° 0 mm 0 mps 728 mmHg 66%
07:00 +14°C° 0 mm 0 mps 729 mmHg 63%
08:00 +15°C° 0 mm 0 mps 730 mmHg 61%
09:00 +19°C° 0 mm 1 mps 730 mmHg 53%
10:00 +21°C° 0 mm 1 mps 730 mmHg 46%
11:00 +23°C° 0 mm 1 mps 730 mmHg 38%
12:00 +24°C° 0 mm 1 mps 730 mmHg 36%
13:00 +25°C° 0 mm 1 mps 729 mmHg 34%
14:00 +26°C° 0 mm 1 mps 728 mmHg 32%
15:00 +25°C° 0 mm 2 mps 728 mmHg 36%
16:00 +23°C° 0 mm 2 mps 728 mmHg 40%
17:00 +21°C° 0 mm 2 mps 727 mmHg 44%
18:00 +19°C° 0 mm 2 mps 728 mmHg 48%
19:00 +19°C° 0 mm 1 mps 728 mmHg 51%
20:00 +16°C° 0 mm 1 mps 728 mmHg 55%
21:00 +16°C° 0 mm 1 mps 728 mmHg 55%
22:00 +15°C° 0 mm 1 mps 728 mmHg 56%
23:00 +15°C° 0 mm 1 mps 728 mmHg 56%

20 January, Wednesday

Time Temperature Precipitation Wind Pressure Humidity
00:00 +14°C° 0 mm 1 mps 728 mmHg 55%
01:00 +14°C° 0 mm 1 mps 728 mmHg 55%
02:00 +14°C° 0 mm 1 mps 728 mmHg 54%
03:00 +13°C° 0 mm 1 mps 728 mmHg 53%
04:00 +13°C° 0 mm 1 mps 728 mmHg 52%
05:00 +12°C° 0 mm 1 mps 728 mmHg 51%
06:00 +13°C° 0 mm 1 mps 728 mmHg 50%
07:00 +14°C° 0 mm 1 mps 729 mmHg 49%
08:00 +15°C° 0 mm 1 mps 730 mmHg 48%
09:00 +17°C° 0 mm 2 mps 730 mmHg 40%
10:00 +20°C° 0 mm 2 mps 730 mmHg 33%
11:00 +22°C° 0 mm 3 mps 730 mmHg 25%
12:00 +24°C° 0 mm 3 mps 730 mmHg 23%
13:00 +25°C° 0 mm 4 mps 729 mmHg 22%
14:00 +26°C° 0 mm 4 mps 729 mmHg 20%
15:00 +23°C° 0 mm 4 mps 729 mmHg 24%
16:00 +22°C° 0 mm 3 mps 728 mmHg 29%
17:00 +20°C° 0 mm 3 mps 728 mmHg 33%
18:00 +18°C° 0 mm 2 mps 728 mmHg 34%
19:00 +17°C° 0 mm 2 mps 729 mmHg 36%
20:00 +15°C° 0 mm 2 mps 729 mmHg 37%
21:00 +15°C° 0 mm 2 mps 729 mmHg 35%
22:00 +15°C° 0 mm 2 mps 729 mmHg 33%
23:00 +14°C° 0 mm 2 mps 729 mmHg 32%

21 January, Thursday

Time Temperature Precipitation Wind Pressure Humidity
00:00 +14°C° 0 mm 2 mps 729 mmHg 31%
01:00 +14°C° 0 mm 2 mps 729 mmHg 30%
02:00 +14°C° 0 mm 2 mps 729 mmHg 29%
03:00 +13°C° 0 mm 2 mps 728 mmHg 29%
04:00 +13°C° 0 mm 2 mps 728 mmHg 30%
05:00 +12°C° 0 mm 2 mps 728 mmHg 30%
06:00 +13°C° 0 mm 2 mps 728 mmHg 32%
07:00 +14°C° 0 mm 2 mps 729 mmHg 33%
08:00 +14°C° 0 mm 2 mps 730 mmHg 35%
09:00 +17°C° 0 mm 2 mps 730 mmHg 30%
10:00 +20°C° 0 mm 3 mps 730 mmHg 24%
11:00 +23°C° 0 mm 4 mps 731 mmHg 19%
12:00 +25°C° 0 mm 4 mps 730 mmHg 18%
13:00 +26°C° 0 mm 4 mps 729 mmHg 17%
14:00 +27°C° 0 mm 4 mps 729 mmHg 16%
15:00 +25°C° 0 mm 3 mps 729 mmHg 20%
16:00 +22°C° 0 mm 3 mps 728 mmHg 23%
17:00 +20°C° 0 mm 2 mps 728 mmHg 27%
18:00 +20°C° 0 mm 1 mps 728 mmHg 28%
19:00 +18°C° 0 mm 1 mps 729 mmHg 29%
20:00 +15°C° 0 mm 1 mps 729 mmHg 30%
21:00 +15°C° 0 mm 1 mps 729 mmHg 29%
22:00 +15°C° 0 mm 1 mps 729 mmHg 29%
23:00 +14°C° 0 mm 1 mps 729 mmHg 28%
Show more